Regional Weather Roundup
Issued by NWS Cleveland, OH

Home | Current Version | Previous Version | Graphics & Text | Print | Product List | Glossary On
Versions: 1 2 3 4 5 6 7 8 9 10 11 12 13 14 15 16 17 18 19 20 21 22 23 24 25 26 27 28 29 30 31 32 33 34 35 36 37 38 39 40 41 42 43 44 45 46 47 48 49 50
000
ASUS41 KCLE 252100
RWRCLE
OHIO REGIONAL WEATHER ROUNDUP
NATIONAL WEATHER SERVICE WILMINGTON, OH
400 PM EST THU DEC 25 2014

NOTE: "FAIR" INDICATES FEW OR NO CLOUDS BELOW 12,000 FEET WITH NO
SIGNIFICANT WEATHER AND/OR OBSTRUCTIONS TO VISIBILITY.

OHZ001>008-015>018-024>027-034-035-043-044-252200-
   NORTHWEST OHIO

CITY           SKY/WX    TMP DP  RH WIND       PRES   REMARKS
DEFIANCE       CLOUDY    38  30  73 SW12G20   30.07R
FINDLAY        CLOUDY    39  31  72 SW9       30.07R
TOLEDO EXPRESS CLOUDY    37  30  75 SW15      30.05R
TOLEDO METCALF CLOUDY    38  29  70 SW16G25   30.06R
LIMA           CLOUDY    39  31  72 SW14      30.08R
$$

OHZ009>014-019>023-028>033-038-089-252200-
   NORTHEAST OHIO

CITY           SKY/WX    TMP DP  RH WIND       PRES   REMARKS
CLE-HOPKINS    CLOUDY    39  30  70 SW18G28   30.09R
CLE-LAKEFRONT  CLOUDY    40  30  67 SW17      30.06R
CUY CO. ARPT   CLOUDY    41  32  70 W15G25    30.06R
LORAIN-ELYRIA  CLOUDY    38  29  70 W16G26    30.08R
ASHTABULA      CLOUDY    39  29  67 W10G23    30.05R
AKRON-CANTON   CLOUDY    39  28  64 W9        30.08R
WOOSTER        NOT AVBL
MANSFIELD      CLOUDY    37  30  75 SW14      30.07R
YOUNGSTOWN     CLOUDY    38  30  73 W12G17    30.05R
$$

OHZ042-051>053-060>062-070>072-077>081-252200-
  SOUTHWEST OHIO

CITY           SKY/WX    TMP DP  RH WIND       PRES   REMARKS
CINC-COVINGTON CLOUDY    41  30  65 S9        30.13R
CINC-LUNKEN    CLOUDY    41  33  73 S10       30.16R
HAMILTON       CLOUDY    42  31  64 SW12      30.15R
DAYTON         NOT AVBL
WRIGHT-PAT AFB CLOUDY    40  32  72 SW10      30.11R
DAYTON GENERAL CLOUDY    40  32  73 SW9       30.11R
WILMINGTON     CLOUDY    39  31  72 SW15      30.12R
$$

OHZ036-037-039>041-045>050-054>059-063>069-073>076-082>088-252200-
  CENTRAL AND SOUTHEAST OHIO

CITY           SKY/WX    TMP DP  RH WIND       PRES   REMARKS
COLUMBUS       CLOUDY    39  29  67 SW15G21   30.12R
OSU AIRPORT    CLOUDY    39  30  70 SW12      30.11R
BOLTON FIELD   CLOUDY    39  32  75 SW14      30.12R
RICKENBACK AFB NOT AVBL
NEWARK         CLOUDY    40  32  73 SW12      30.11R
MARION         CLOUDY    39  29  67 W14       30.09R
LANCASTER      CLOUDY    40  31  70 SW10      30.13R
ZANESVILLE     CLOUDY    40  30  67 SW8       30.11R
NEW PHILLY     CLOUDY    40  29  64 SW7       30.11R
$$


USA.gov is the U.S. government's official web portal to all federal, state and local government web resources and services.